TimeEST,TemperatureF,Dew PointF,Humidity,Sea Level PressureIn,VisibilityMPH,Wind Direction,Wind SpeedMPH,Gust SpeedMPH,PrecipitationIn,Events,Conditions,WindDirDegrees,DateUTC
12:15 AM,-4.4,-10.1,76,30.13,10.0,Calm,Calm,-,N/A,,Clear,0,2013-12-31 05:15:00
12:35 AM,-3.5,-9.8,74,30.13,10.0,Calm,Calm,-,N/A,,Clear,0,2013-12-31 05:35:00
12:55 AM,-3.6,-9.6,76,30.13,10.0,Calm,Calm,-,N/A,,Clear,0,2013-12-31 05:55:00
1:15 AM,-4.2,-9.6,78,30.12,10.0,Calm,Calm,-,N/A,,Clear,0,2013-12-31 06:15:00
1:35 AM,-4.4,-9.9,77,30.11,10.0,Calm,Calm,-,N/A,,Clear,0,2013-12-31 06:35:00
1:55 AM,-5.1,-10.3,78,30.11,10.0,Calm,Calm,-,N/A,,Clear,0,2013-12-31 06:55:00
2:15 AM,-4.9,-9.8,80,30.11,10.0,Calm,Calm,-,N/A,,Clear,0,2013-12-31 07:15:00
2:35 AM,-4.4,-9.6,78,30.11,10.0,Calm,Calm,-,N/A,,Clear,0,2013-12-31 07:35:00
2:55 AM,-4.2,-9.9,76,30.12,10.0,Calm,Calm,-,N/A,,Clear,0,2013-12-31 07:55:00
3:15 AM,-4.0,-10.1,75,30.12,10.0,Calm,Calm,-,N/A,,Clear,0,2013-12-31 08:15:00
3:35 AM,-4.4,-9.6,78,30.12,10.0,Calm,Calm,-,N/A,,Clear,0,2013-12-31 08:35:00
3:55 AM,-4.0,-9.6,77,30.11,10.0,Calm,Calm,-,N/A,,Clear,0,2013-12-31 08:55:00
4:15 AM,-4.9,-9.9,79,30.09,10.0,SW,4.6,-,N/A,,Scattered Clouds,230,2013-12-31 09:15:00
4:35 AM,-4.0,-9.6,77,30.09,10.0,Calm,Calm,-,N/A,,Scattered Clouds,0,2013-12-31 09:35:00
4:55 AM,-4.5,-9.6,79,30.08,10.0,Calm,Calm,-,N/A,,Scattered Clouds,0,2013-12-31 09:55:00
5:15 AM,-4.2,-9.4,78,30.08,10.0,Calm,Calm,-,N/A,,Overcast,0,2013-12-31 10:15:00
5:35 AM,-4.0,-9.0,79,30.07,10.0,Calm,Calm,-,N/A,,Overcast,0,2013-12-31 10:35:00
5:55 AM,-3.5,-8.7,78,30.07,10.0,Calm,Calm,-,N/A,,Overcast,0,2013-12-31 10:55:00
6:15 AM,-3.1,-8.7,77,30.07,10.0,SW,3.5,-,N/A,,Overcast,230,2013-12-31 11:15:00
6:35 AM,-2.7,-8.7,76,30.06,10.0,Calm,Calm,-,N/A,,Overcast,0,2013-12-31 11:35:00
6:55 AM,-2.6,-9.0,74,30.06,10.0,Calm,Calm,-,N/A,,Overcast,0,2013-12-31 11:55:00
7:15 AM,-3.3,-8.5,78,30.06,10.0,Calm,Calm,-,N/A,,Overcast,0,2013-12-31 12:15:00
7:35 AM,-3.5,-8.5,79,30.05,10.0,Calm,Calm,-,N/A,,Overcast,0,2013-12-31 12:35:00
7:55 AM,-2.9,-8.3,78,30.05,10.0,Calm,Calm,-,N/A,,Overcast,0,2013-12-31 12:55:00
8:15 AM,-2.6,-8.5,76,30.05,10.0,Calm,Calm,-,N/A,,Mostly Cloudy,0,2013-12-31 13:15:00
8:35 AM,-1.8,-7.8,76,30.04,10.0,Calm,Calm,-,N/A,,Mostly Cloudy,0,2013-12-31 13:35:00
8:55 AM,-1.3,-8.1,73,30.04,10.0,Calm,Calm,-,N/A,,Overcast,0,2013-12-31 13:55:00
9:15 AM,-0.4,-7.8,71,30.04,10.0,Calm,Calm,-,N/A,,Overcast,0,2013-12-31 14:15:00
9:35 AM,0.1,-7.8,69,30.05,10.0,Calm,Calm,-,N/A,,Mostly Cloudy,0,2013-12-31 14:35:00
9:55 AM,1.2,-7.4,67,30.04,10.0,Calm,Calm,-,N/A,,Overcast,0,2013-12-31 14:55:00
10:15 AM,1.9,-7.4,65,30.04,10.0,Calm,Calm,-,N/A,,Overcast,0,2013-12-31 15:15:00
10:35 AM,3.0,-6.0,66,30.04,10.0,Calm,Calm,-,N/A,,Overcast,0,2013-12-31 15:35:00
10:55 AM,3.4,-6.0,65,30.03,10.0,Calm,Calm,-,N/A,,Overcast,0,2013-12-31 15:55:00
11:15 AM,4.1,-6.0,63,30.01,10.0,Calm,Calm,-,N/A,,Overcast,0,2013-12-31 16:15:00
11:35 AM,4.3,-7.1,59,29.99,10.0,Calm,Calm,-,N/A,,Overcast,0,2013-12-31 16:35:00
11:55 AM,4.3,-8.1,56,29.98,10.0,Calm,Calm,-,N/A,,Overcast,0,2013-12-31 16:55:00
12:15 PM,4.6,-7.6,57,29.98,10.0,Calm,Calm,-,N/A,,Overcast,0,2013-12-31 17:15:00
12:35 PM,5.5,-6.9,57,29.97,10.0,Calm,Calm,-,N/A,,Overcast,0,2013-12-31 17:35:00
12:55 PM,5.9,-6.9,56,29.96,10.0,Calm,Calm,-,N/A,,Overcast,0,2013-12-31 17:55:00
1:15 PM,6.1,-6.2,57,29.95,5.0,Calm,Calm,-,N/A,,Haze,0,2013-12-31 18:15:00
1:35 PM,6.6,-5.1,59,29.95,7.0,Calm,Calm,-,N/A,,Overcast,0,2013-12-31 18:35:00
1:55 PM,6.8,-4.4,60,29.94,10.0,SE,3.5,-,N/A,,Scattered Clouds,140,2013-12-31 18:55:00
2:15 PM,7.3,-3.3,62,29.95,10.0,SSE,3.5,-,N/A,,Scattered Clouds,150,2013-12-31 19:15:00
2:35 PM,7.5,-2.2,65,29.95,10.0,Calm,Calm,-,N/A,,Overcast,0,2013-12-31 19:35:00
2:55 PM,7.5,-1.3,67,29.95,5.0,SSE,3.5,-,N/A,,Haze,160,2013-12-31 19:55:00
3:15 PM,7.2,-0.9,69,29.95,7.0,SE,3.5,-,N/A,,Scattered Clouds,140,2013-12-31 20:15:00
3:35 PM,6.8,-0.9,71,29.96,10.0,Calm,Calm,-,N/A,,Clear,0,2013-12-31 20:35:00
3:55 PM,7.3,-0.8,69,29.96,10.0,Calm,Calm,-,N/A,,Mostly Cloudy,0,2013-12-31 20:55:00
4:15 PM,7.2,-0.4,71,29.96,10.0,South,3.5,-,N/A,,Overcast,170,2013-12-31 21:15:00
4:35 PM,6.8,-0.2,73,29.96,7.0,Calm,Calm,-,N/A,,Overcast,0,2013-12-31 21:35:00
4:55 PM,6.8,0.3,75,29.96,7.0,Calm,Calm,-,N/A,,Overcast,0,2013-12-31 21:55:00
5:15 PM,6.8,1.0,77,29.96,7.0,SSW,3.5,-,N/A,,Overcast,200,2013-12-31 22:15:00
5:35 PM,6.8,1.8,80,29.97,7.0,Calm,Calm,-,N/A,,Overcast,0,2013-12-31 22:35:00
5:55 PM,6.8,2.1,81,29.97,5.0,South,4.6,-,N/A,Snow,Light Snow,170,2013-12-31 22:55:00
6:15 PM,7.3,2.8,82,29.97,4.0,Calm,Calm,-,N/A,Snow,Light Snow,0,2013-12-31 23:15:00
6:35 PM,7.3,3.0,82,29.97,2.5,Calm,Calm,-,N/A,Snow,Light Snow,0,2013-12-31 23:35:00
6:55 PM,7.3,3.0,82,29.97,3.0,Calm,Calm,-,N/A,Snow,Light Snow,0,2013-12-31 23:55:00
7:15 PM,7.5,3.0,82,29.97,1.8,SE,3.5,-,N/A,Snow,Light Snow,140,2014-01-01 00:15:00
7:35 PM,7.3,3.0,82,29.98,3.0,Calm,Calm,-,N/A,Snow,Light Snow,0,2014-01-01 00:35:00
7:55 PM,7.5,3.2,82,29.98,1.5,Calm,Calm,-,N/A,Snow,Light Snow,0,2014-01-01 00:55:00
8:15 PM,7.5,3.2,82,29.98,1.8,Calm,Calm,-,N/A,Snow,Light Snow,0,2014-01-01 01:15:00
8:35 PM,7.7,3.2,82,29.99,1.2,Calm,Calm,-,N/A,Snow,Light Snow,0,2014-01-01 01:35:00
8:55 PM,7.5,3.2,82,29.99,1.2,Calm,Calm,-,N/A,Snow,Light Snow,0,2014-01-01 01:55:00
9:15 PM,7.0,2.8,83,30.00,3.0,Calm,Calm,-,N/A,Snow,Light Snow,0,2014-01-01 02:15:00
9:35 PM,6.8,2.7,83,30.01,5.0,Calm,Calm,-,N/A,Snow,Light Snow,0,2014-01-01 02:35:00
9:55 PM,7.2,3.0,83,30.01,4.0,Calm,Calm,-,N/A,Snow,Light Snow,0,2014-01-01 02:55:00
10:15 PM,7.9,3.9,84,30.01,5.0,Calm,Calm,-,N/A,Snow,Light Snow,0,2014-01-01 03:15:00
10:35 PM,8.4,4.1,83,30.01,2.0,Calm,Calm,-,N/A,Snow,Light Snow,0,2014-01-01 03:35:00
10:55 PM,9.5,5.4,83,30.03,1.5,Calm,Calm,-,N/A,Snow,Light Snow,0,2014-01-01 03:55:00
11:15 PM,8.8,5.0,85,30.03,2.0,SSE,3.5,-,N/A,Snow,Light Snow,160,2014-01-01 04:15:00
11:35 PM,9.3,5.2,83,30.03,4.0,Calm,Calm,-,N/A,Snow,Light Snow,0,2014-01-01 04:35:00
11:55 PM,11.3,6.3,80,30.03,4.0,West,5.8,-,N/A,Snow,Light Snow,280,2014-01-01 04:55:00